GW6655 Weather Reports


time (UTC)temp
F
wind
direction
speed
knots
gust
knots
rain 1hr
in
rain 24hr
in
rain mn
in
humidity
%
barometer
mb
20260906165441 76 48 1.7 5.2 0.00 0.00 0.00 63 1020.7
20260906164940 76 60 7.0 7.0 0.00 0.00 0.00 63 1021.3
20260906164411 75 138 2.6 8.7 0.00 0.00 0.00 64 1020.9
20260906164129 75 94 6.1 7.8 0.00 0.00 0.00 62 1021.2
20260906163340 76 89 6.1 7.8 0.00 0.00 0.00 60 1020.8
20260906162840 75 130 4.3 8.7 0.00 0.00 0.00 62 1021.0
20260906162311 76 91 3.5 7.0 0.00 0.00 0.00 62 1021.3
20260906161810 75 67 2.6 2.6 0.00 0.00 0.00 67 1021.2
20260906161500 75 135 4.3 7.0 0.00 0.00 0.00 65 1021.3
20260906160740 75 108 3.5 3.5 0.00 0.00 0.00 66 1021.1
20260906160211 74 135 0.0 6.1 0.00 0.00 0.00 65 1021.3
20260906155710 75 87 4.3 5.2 0.00 0.00 0.00 66 1021.6
20260906155210 75 138 0.9 5.2 0.00 0.00 0.00 67 1021.0
20260906154641 73 95 3.5 4.3 0.00 0.00 0.00 73 1021.0
20260906154141 73 92 4.3 7.0 0.00 0.00 0.00 72 1021.2
20260906153640 74 109 3.5 7.8 0.00 0.00 0.00 71 1021.3
20260906153555 73 58 5.2 6.1 0.00 0.00 0.00 73 1021.1
20260906152541 73 59 0.0 3.5 0.00 0.00 0.00 75 1021.4
20260906152041 72 55 5.2 7.0 0.00 0.00 0.00 76 1020.8
20260906151540 71 109 3.5 6.1 0.00 0.00 0.00 77 1021.2
20260906151011 72 96 5.2 7.0 0.00 0.00 0.00 76 1021.2
20260906150510 71 36 0.0 4.3 0.00 0.00 0.00 79 1021.2
20260906145941 71 57 1.7 6.1 0.00 0.00 0.00 79 1021.1
20260906145440 71 77 3.5 6.1 0.00 0.00 0.00 79 1021.4
20260906144940 70 80 3.5 5.2 0.00 0.00 0.00 82 1021.2
20260906144411 69 65 5.2 7.8 0.00 0.00 0.00 82 1020.9
20260906143910 69 98 5.2 6.1 0.00 0.00 0.00 81 1020.8
20260906143341 69 70 3.5 6.1 0.00 0.00 0.00 82 1021.1
20260906143102 70 64 3.5 6.1 0.00 0.00 0.00 81 1021.3
20260906142315 69 54 4.3 7.0 0.00 0.00 0.00 83 1021.3
20260906141741 69 98 1.7 5.2 0.00 0.00 0.00 82 1021.2
20260906141241 68 84 1.7 4.3 0.00 0.00 0.00 84 1021.4
20260906140740 68 111 4.3 5.2 0.00 0.00 0.00 83 1021.4
20260906140211 67 108 3.5 7.0 0.00 0.00 0.00 84 1021.4
20260906135930 67 92 2.6 5.2 0.00 0.00 0.00 83 1021.4
20260906135210 67 61 3.5 4.3 0.00 0.00 0.00 85 1021.6
20260906134641 66 82 4.3 5.2 0.00 0.00 0.00 84 1021.5
20260906134140 66 99 3.5 6.1 0.00 0.00 0.00 85 1021.5
20260906133611 66 98 3.5 6.1 0.00 0.00 0.00 83 1021.3
20260906133111 65 92 2.6 4.3 0.00 0.00 0.00 85 1021.3
20260906132610 64 121 2.6 5.2 0.00 0.00 0.00 86 1021.3
20260906132331 64 79 3.5 6.1 0.00 0.00 0.00 85 1021.2
20260906131610 64 73 3.5 6.1 0.00 0.00 0.00 85 1021.2
20260906131110 64 89 3.5 4.3 0.00 0.00 0.00 85 1021.3
20260906130541 64 100 0.9 3.5 0.00 0.00 0.00 85 1021.0
20260906130040 63 75 3.5 3.5 0.00 0.00 0.00 86 1021.1
20260906125511 62 66 1.7 5.2 0.00 0.00 0.00 86 1021.0
20260906125011 62 68 2.6 4.3 0.00 0.00 0.00 86 1021.0
20260906124441 62 105 0.9 7.0 0.00 0.00 0.00 86 1021.2
20260906123941 61 127 0.9 7.0 0.00 0.00 0.00 87 1021.0
20260906123410 61 77 4.3 5.2 0.00 0.00 0.00 87 1021.1
20260906122841 61 85 2.6 5.2 0.00 0.00 0.00 88 1021.0
20260906122341 60 85 3.5 5.2 0.00 0.00 0.00 90 1021.0
20260906121841 60 64 3.5 7.8 0.00 0.00 0.00 90 1020.8
20260906121311 60 95 2.6 5.2 0.00 0.00 0.00 91 1020.7
20260906120811 59 91 3.5 4.3 0.00 0.00 0.00 94 1020.9
20260906120755 58 99 1.7 3.5 0.00 0.00 0.00 96 1020.9
20260906115740 58 64 0.0 3.5 0.00 0.00 0.00 96 1020.8
20260906115211 58 91 0.0 1.7 0.00 0.00 0.00 96 1020.8
20260906114710 57 35 1.7 2.6 0.00 0.00 0.00 96 1020.6
20260906114210 57 79 0.9 2.6 0.00 0.00 0.00 97 1020.7
20260906113641 56 97 1.7 2.6 0.00 0.00 0.00 97 1020.5
20260906113111 57 113 1.7 2.6 0.00 0.00 0.00 97 1020.4
20260906112611 57 71 2.6 4.3 0.00 0.00 0.00 97 1020.2
20260906112111 56 84 2.6 3.5 0.00 0.00 0.00 97 1020.1
20260906111610 56 91 1.7 2.6 0.00 0.00 0.00 97 1020.3
20260906111110 56 99 0.0 2.6 0.00 0.00 0.00 97 1020.2
20260906110801 57 82 1.7 2.6 0.00 0.00 0.00 97 1019.8
20260906110011 57 99 0.9 2.6 0.00 0.00 0.00 96 1019.9
20260906105510 56 103 1.7 2.6 0.00 0.00 0.00 96 1019.8
20260906105010 56 89 1.7 2.6 0.00 0.00 0.00 97 1019.8
20260906104441 56 106 1.7 2.6 0.00 0.00 0.00 97 1019.5
20260906103941 57 100 0.9 2.6 0.00 0.00 0.00 97 1019.5
20260906103440 57 86 0.9 3.5 0.00 0.00 0.00 97 1019.9
20260906102911 57 80 2.6 3.5 0.00 0.00 0.00 97 1019.9
20260906102630 57 83 1.7 3.5 0.00 0.00 0.00 97 1019.8
20260906101910 57 97 1.7 3.5 0.00 0.00 0.00 97 1019.8
20260906101341 57 102 1.7 3.5 0.00 0.00 0.00 97 1019.9
20260906101100 57 105 0.9 2.6 0.00 0.00 0.00 97 1019.9
20260906100311 57 73 1.7 3.5 0.00 0.00 0.00 97 1020.0
20260906100030 57 94 2.6 3.5 0.00 0.00 0.00 97 1020.0
20260906095241 57 64 0.0 3.5 0.00 0.00 0.00 96 1019.9
20260906094740 57 58 1.7 3.5 0.00 0.00 0.00 96 1019.9
20260906094500 57 358 0.9 3.5 0.00 0.00 0.00 96 1019.7
20260906093711 57 95 2.6 3.5 0.00 0.00 0.00 96 1019.6
20260906093210 57 94 2.6 3.5 0.00 0.00 0.00 96 1019.8
20260906092710 57 106 1.7 3.5 0.00 0.00 0.00 96 1019.7
20260906092141 57 104 3.5 3.5 0.00 0.00 0.00 96 1019.7
20260906091641 57 105 1.7 3.5 0.00 0.00 0.00 96 1019.9
20260906091140 57 51 1.7 2.6 0.00 0.00 0.00 96 1020.0
20260906090640 57 75 2.6 2.6 0.00 0.00 0.00 96 1019.6
20260906090111 57 38 2.6 2.6 0.00 0.00 0.00 96 1019.8
20260906085611 58 46 0.9 3.5 0.00 0.00 0.00 97 1019.6
20260906085332 58 94 1.7 2.6 0.00 0.00 0.00 97 1019.6
20260906084540 58 14 1.7 1.7 0.00 0.00 0.00 96 1019.9
20260906084457 58 52 0.0 1.7 0.00 0.00 0.00 96 1019.9
20260906083441 58 206 1.7 2.6 0.00 0.00 0.00 96 1019.9
20260906082941 58 283 0.0 2.6 0.00 0.00 0.00 96 1019.8
20260906082441 58 95 0.9 3.5 0.00 0.00 0.00 96 1019.1
20260906081911 58 277 0.9 2.6 0.00 0.00 0.00 96 1019.8
20260906081411 58 16 0.9 2.6 0.00 0.00 0.00 96 1019.3
20260906080910 57 291 0.0 3.5 0.00 0.00 0.00 96 1019.3
20260906080410 58 128 1.7 3.5 0.00 0.00 0.00 96 1019.1
20260906075841 58 102 1.7 3.5 0.00 0.00 0.00 96 1019.3
20260906075311 58 120 1.7 2.6 0.00 0.00 0.00 96 1019.4
20260906074811 57 161 1.7 3.5 0.00 0.00 0.00 96 1019.4
20260906074241 58 108 1.7 3.5 0.00 0.00 0.00 96 1019.6
20260906073741 58 107 1.7 2.6 0.00 0.00 0.00 96 1019.5
20260906073211 58 260 0.9 2.6 0.00 0.00 0.00 96 1019.2
20260906072711 58 139 1.7 3.5 0.00 0.00 0.00 96 1019.5
20260906072210 58 81 1.7 3.5 0.00 0.00 0.00 95 1019.4
20260906071710 58 130 1.7 2.6 0.00 0.00 0.00 95 1019.5
20260906071359 58 137 1.7 3.5 0.00 0.00 0.00 95 1019.4
20260906070641 58 72 1.7 4.3 0.00 0.00 0.00 95 1019.3
20260906070401 58 127 3.5 3.5 0.00 0.00 0.00 96 1019.8
20260906065640 58 99 1.7 4.3 0.00 0.00 0.00 96 1019.5
20260906065140 58 129 5.2 5.2 0.00 0.00 0.00 96 1019.6
20260906064611 58 81 2.6 3.5 0.00 0.00 0.00 95 1019.6
20260906064110 59 11 0.0 3.5 0.00 0.00 0.00 95 1019.6
20260906063610 59 48 1.7 4.3 0.00 0.00 0.00 95 1019.6
20260906063040 59 171 2.6 4.3 0.00 0.00 0.00 95 1019.4
20260906062540 59 132 1.7 3.5 0.00 0.00 0.00 95 1019.6
20260906062011 59 217 2.6 4.3 0.00 0.00 0.00 95 1019.6
20260906061511 59 214 1.7 1.7 0.00 0.00 0.00 95 1019.7
20260906061010 59 155 1.7 3.5 0.00 0.00 0.00 94 1019.0
20260906060511 59 70 1.7 4.3 0.00 0.00 0.00 94 1019.4
20260906055941 59 120 2.6 3.5 0.00 0.00 0.00 94 1019.3
20260906055410 59 238 0.9 4.3 0.00 0.00 0.00 94 1019.1
20260906054840 60 192 3.5 4.3 0.00 0.00 0.00 93 1018.8
20260906054340 60 155 0.0 1.7 0.00 0.00 0.00 93 1019.0
20260906053811 60 122 1.7 4.3 0.00 0.00 0.00 93 1018.7
20260906053241 60 102 0.0 3.5 0.00 0.00 0.00 94 1018.7
20260906052933 60 140 0.9 1.7 0.00 0.00 0.00 95 1018.8
20260906052211 60 154 3.5 3.5 0.00 0.00 0.00 95 1018.7
20260906051710 60 36 0.0 3.5 0.00 0.00 0.00 95 1018.6
20260906051210 60 69 0.0 0.9 0.00 0.00 0.00 95 1018.8
20260906050641 60 66 0.9 1.7 0.00 0.00 0.00 95 1018.8
20260906050141 60 89 0.0 0.9 0.00 0.00 0.00 96 1018.7
20260906045640 60 101 1.7 2.6 0.00 0.00 0.00 96 1018.6
20260906045140 60 68 0.9 1.7 0.00 0.00 0.00 96 1018.6
20260906044610 60 94 0.9 1.7 0.00 0.00 0.00 96 1018.7
20260906044110 60 80 0.9 1.7 0.00 0.00 0.00 95 1018.7
20260906043541 60 86 0.9 1.7 0.00 0.00 0.00 95 1018.6
20260906043040 60 60 0.9 1.7 0.00 0.00 0.00 95 1018.4
20260906042511 60 93 0.9 1.7 0.00 0.00 0.00 95 1018.3
20260906042011 60 94 1.7 2.6 0.00 0.00 0.00 95 1018.5
20260906041511 60 103 0.9 1.7 0.00 0.00 0.00 95 1018.4
20260906041010 61 103 0.9 1.7 0.00 0.00 0.00 95 1018.4
20260906040510 61 84 1.7 1.7 0.00 0.00 0.00 95 1018.4
20260906040202 61 82 1.7 2.6 0.00 0.00 0.00 95 1018.4
20260906035441 61 93 0.9 1.7 0.00 0.00 0.00 95 1018.4
20260906034940 61 92 0.9 1.7 0.00 0.00 0.00 95 1018.5
20260906034700 61 87 0.0 0.9 0.00 0.00 0.00 95 1018.3
20260906033940 61 107 1.7 2.6 0.00 0.00 0.00 94 1018.3
20260906033411 61 107 0.9 1.7 0.00 0.00 0.00 94 1018.5
20260906032911 61 114 0.9 1.7 0.00 0.00 0.00 94 1018.4
20260906032341 62 105 0.0 1.7 0.00 0.00 0.00 93 1018.4
20260906031840 62 129 0.0 0.9 0.00 0.00 0.00 93 1018.1
20260906031311 61 129 0.0 1.7 0.00 0.00 0.00 93 1018.6
20260906030811 61 108 1.7 1.7 0.00 0.00 0.00 93 1018.5
20260906030241 62 99 0.9 1.7 0.00 0.00 0.00 92 1018.1
20260906025740 62 126 0.9 1.7 0.00 0.00 0.00 91 1018.5
20260906025240 62 119 0.0 1.7 0.00 0.00 0.00 91 1018.3
20260906024710 62 87 0.9 1.7 0.00 0.00 0.00 91 1018.5
20260906024210 63 89 0.0 0.9 0.00 0.00 0.00 90 1018.0
20260906023640 63 107 1.7 2.6 0.00 0.00 0.00 90 1018.1
20260906023140 62 105 2.6 2.6 0.00 0.00 0.00 90 1018.2
20260906023055 62 119 1.7 1.7 0.00 0.00 0.00 89 1018.3
20260906022110 63 110 0.9 0.9 0.00 0.00 0.00 88 1018.1
20260906021610 63 98 1.7 1.7 0.00 0.00 0.00 88 1017.9
20260906021041 64 120 1.7 1.7 0.00 0.00 0.00 86 1017.9
20260906020540 64 95 1.7 2.6 0.00 0.00 0.00 86 1017.8
20260906020040 64 107 1.7 1.7 0.00 0.00 0.00 86 1018.0
20260906015511 64 101 1.7 1.7 0.00 0.00 0.00 86 1018.3
20260906015011 64 103 1.7 1.7 0.00 0.00 0.00 85 1018.0
20260906014510 64 115 0.9 1.7 0.00 0.00 0.00 84 1018.0
20260906014426 65 117 1.7 1.7 0.00 0.00 0.00 83 1017.9
20260906013629 65 101 0.9 1.7 0.00 0.00 0.00 82 1017.7
20260906012841 65 141 1.7 1.7 0.00 0.00 0.00 83 1017.7
20260906012602 66 154 0.0 1.7 0.00 0.00 0.00 83 1018.1
20260906011811 66 146 0.9 1.7 0.00 0.00 0.00 81 1017.9
20260906011311 67 142 0.9 0.9 0.00 0.00 0.00 81 1017.9
20260906010810 67 154 0.0 0.0 0.00 0.00 0.00 78 1017.7
20260906010501 68 102 1.7 1.7 0.00 0.00 0.00 78 1018.0
20260906005740 68 113 1.7 2.6 0.00 0.00 0.00 77 1017.8
20260906005211 69 102 1.7 2.6 0.00 0.00 0.00 75 1017.7
20260906004710 69 98 2.6 3.5 0.00 0.00 0.00 75 1017.5
20260906004210 69 110 1.7 3.5 0.00 0.00 0.00 77 1017.8
20260906003900 69 102 2.6 3.5 0.00 0.00 0.00 76 1017.7
20260906003140 70 95 2.6 2.6 0.00 0.00 0.00 76 1017.5
20260906002611 70 121 1.7 2.6 0.00 0.00 0.00 75 1017.6
20260906002330 71 112 2.6 2.6 0.00 0.00 0.00 74 1017.6
20260906001610 71 95 1.7 2.6 0.00 0.00 0.00 74 1017.3
20260906001041 71 104 2.6 3.5 0.00 0.00 0.00 72 1017.2
20260906000540 72 109 2.6 3.5 0.00 0.00 0.00 71 1017.2
20260906000040 72 105 1.7 3.5 0.00 0.00 0.00 70 1017.2
20260905235730 73 80 1.7 3.5 0.00 0.00 0.00 69 1017.0
20260905235010 73 83 1.7 3.5 0.00 0.00 0.00 67 1017.2
20260905234703 74 110 3.5 5.2 0.00 0.00 0.00 65 1017.5
20260905234200 74 115 2.6 2.6 0.00 0.00 0.00 63 1017.0
20260905233440 74 94 3.5 4.3 0.00 0.00 0.00 62 1017.4
20260905232911 75 93 3.5 4.3 0.00 0.00 0.00 61 1017.2
20260905232341 75 76 4.3 5.2 0.00 0.00 0.00 61 1017.5
20260905231841 75 87 2.6 5.2 0.00 0.00 0.00 61 1017.0
20260905231340 75 85 1.7 7.8 0.00 0.00 0.00 59 1017.2
20260905230840 75 65 2.6 7.8 0.00 0.00 0.00 59 1017.0
20260905230533 76 96 7.0 7.8 0.00 0.00 0.00 59 1017.0
20260905225811 76 87 2.6 7.8 0.00 0.00 0.00 58 1017.1
20260905225311 76 71 4.3 7.8 0.00 0.00 0.00 58 1017.1
20260905224741 76 96 5.2 7.0 0.00 0.00 0.00 59 1017.5
20260905224240 76 70 2.6 5.2 0.00 0.00 0.00 59 1017.5
20260905223711 76 67 3.5 6.1 0.00 0.00 0.00 58 1017.4
20260905223210 77 111 6.1 7.8 0.00 0.00 0.00 58 1017.1
20260905222710 77 82 4.3 7.8 0.00 0.00 0.00 58 1017.2
20260905222210 77 96 3.5 6.1 0.00 0.00 0.00 58 1017.1
20260905221641 77 118 2.6 6.1 0.00 0.00 0.00 58 1017.2
20260905221140 76 99 6.1 7.0 0.00 0.00 0.00 59 1017.2
20260905220640 77 104 3.5 5.2 0.00 0.00 0.00 59 1017.3
20260905220111 77 89 0.0 3.5 0.00 0.00 0.00 61 1016.8
20260905215611 77 116 3.5 4.3 0.00 0.00 0.00 62 1016.9
20260905215331 76 54 5.2 6.1 0.00 0.00 0.00 62 1017.3
20260905214611 76 77 2.6 4.3 0.00 0.00 0.00 64 1016.9
20260905214041 75 94 3.5 4.3 0.00 0.00 0.00 65 1017.1
20260905213511 76 92 4.3 4.3 0.00 0.00 0.00 65 1016.8
20260905213230 76 88 2.6 5.2 0.00 0.00 0.00 63 1017.3
20260905212731 76 78 3.5 5.2 0.00 0.00 0.00 65 1017.2
20260905211941 76 62 3.5 7.0 0.00 0.00 0.00 63 1017.2
20260905211411 78 61 3.5 7.0 0.00 0.00 0.00 60 1017.2
20260905210841 78 80 2.6 4.3 0.00 0.00 0.00 62 1017.3
20260905210311 76 120 0.9 3.5 0.00 0.00 0.00 66 1017.0
20260905205811 76 119 0.0 3.5 0.00 0.00 0.00 66 1017.0
20260905205311 75 117 2.6 4.3 0.00 0.00 0.00 67 1017.5
20260905204741 76 97 4.3 5.2 0.00 0.00 0.00 67 1017.1
20260905204241 76 80 2.6 4.3 0.00 0.00 0.00 67 1017.1
20260905203740 76 70 2.6 2.6 0.00 0.00 0.00 67 1017.2
20260905203432 77 99 2.6 4.3 0.00 0.00 0.00 66 1017.3
20260905202710 76 13 0.9 2.6 0.00 0.00 0.00 67 1017.1
20260905202141 76 102 4.3 5.2 0.00 0.00 0.00 69 1017.3
20260905201640 78 75 4.3 6.1 0.00 0.00 0.00 65 1016.9
20260905201140 78 129 2.6 3.5 0.00 0.00 0.00 67 1016.7
20260905200640 76 92 2.6 6.1 0.00 0.00 0.00 68 1017.1
20260905200111 75 66 6.1 8.7 0.00 0.00 0.00 68 1017.0
20260905195610 76 53 1.7 5.2 0.00 0.00 0.00 69 1017.1
20260905195041 76 71 1.7 5.2 0.00 0.00 0.00 69 1017.0
20260905194541 75 114 1.7 7.0 0.00 0.00 0.00 69 1017.2
20260905194040 75 84 1.7 5.2 0.00 0.00 0.00 71 1017.1
20260905193511 76 82 4.3 7.0 0.00 0.00 0.00 69 1017.1
20260905193229 80 86 1.7 6.1 0.00 0.00 0.00 65 1017.1
20260905192441 78 95 0.9 6.1 0.00 0.00 0.00 68 1017.1
20260905192202 77 32 2.6 4.3 0.00 0.00 0.00 69 1017.4
20260905191411 76 21 0.9 4.3 0.00 0.00 0.00 71 1017.1
20260905190910 77 21 1.7 6.1 0.00 0.00 0.00 70 1017.0
20260905190341 77 340 2.6 7.0 0.00 0.00 0.00 70 1016.9
20260905185840 75 81 2.6 3.5 0.00 0.00 0.00 74 1017.2
20260905185311 76 350 2.6 5.2 0.00 0.00 0.00 71 1017.2
20260905184741 75 73 3.5 8.7 0.00 0.00 0.00 71 1017.0
20260905184240 76 69 4.3 7.0 0.00 0.00 0.00 72 1017.2
20260905183740 74 81 1.7 5.2 0.00 0.00 0.00 76 1017.4
20260905183240 74 72 3.5 7.0 0.00 0.00 0.00 74 1017.4
20260905182210 75 60 3.5 6.1 0.00 0.00 0.00 74 1017.6
20260905181710 75 0 1.7 5.2 0.00 0.00 0.00 74 1017.8
20260905181141 74 78 0.9 4.3 0.00 0.00 0.00 77 1017.6
20260905180641 73 76 0.9 7.0 0.00 0.00 0.00 78 1017.4
20260905180140 74 22 1.7 5.2 0.00 0.00 0.00 77 1017.4
20260905175611 73 65 7.8 9.6 0.00 0.00 0.00 78 1017.4
20260905175330 74 51 4.3 7.8 0.00 0.00 0.00 77 1017.3
20260905175027 73 66 4.3 9.6 0.00 0.00 0.00 78 1017.5
20260905174040 73 142 1.7 5.2 0.00 0.00 0.00 78 1017.5
20260905173511 73 69 3.5 7.0 0.00 0.00 0.00 80 1017.3
20260905173200 73 52 5.2 7.8 0.00 0.00 0.00 79 1017.7
20260905172411 72 79 2.6 6.1 0.00 0.00 0.00 82 1017.8
20260905171840 72 83 2.6 5.2 0.00 0.00 0.00 82 1017.5
20260905171311 72 61 3.5 6.1 0.00 0.00 0.00 81 1017.7
20260905170811 73 29 0.0 5.2 0.00 0.00 0.00 81 1017.5
20260905170240 72 83 1.7 5.2 0.00 0.00 0.00 82 1018.1
20260905165740 72 35 1.7 6.1 0.00 0.00 0.00 83 1017.7